3CAT-4

Satellite information

Favourite Embed

Satellite Type and Status

PAYLOADIN ORBIT

Key statistics

Satellite 3CAT-4 at a glance.

Uptime

307

Days in orbit

Revolutions

≈ 15.0

Per day

Orbit

LEO

Low Earth Orbit

Inclination

62.0

Latest

Satellite identification and parameters

Extended collection of information and parameters for 3CAT-4.

Object identification

Identified? True

Debris? False

Object name: 3CAT-4

International designator: 2024-128B

Object number (NORAD): 60236

Object ID (CCSDS): 60236

Country: SPAIN (SPN)

Current information (Y/N): Y

RCS size: SMALL

Orbital parameters

Period: 96.001 minutes

Inclination: 61.9919 deg

SMA: 6945.059 km

Apoapsis: 602.094 km

Periapsis: 531.754 km

RAAN: 181.5396 deg

Eccentricy: 0.005064

Argument of periapsis: 51.1166 deg

Mean anomaly: 309.4425 deg

Mean motion: 14.99991708 rev/day

Mean motion (dot): 0.00001667 rev/day2

B* drag term: 0.00014653 1/REarth

Two-line elements (TLE)

Creation date: May 12, 2025, 2:31 a.m.

Reference frame: TEME

Reference center: EARTH

Epoch: May 11, 2025, 9:28 p.m. UTC

TLE line 0: 0 3CAT-4

TLE line 1: 1 60236U 24128B 25131.89469755 .00001667 00000-0 14653-3 0 9991

TLE line 2: 2 60236 61.9919 181.5396 0050640 51.1166 309.4425 14.99991708 45869

Live tracking on map

Real-time ground track for satellite 3CAT-4.

In-orbit conjunctions

There are no conjunctions computed for 3CAT-4, at the moment. Check back to stay up to date, as we update our databases every day.

Go to all conjunctions

Associated space launch

Maiden Flight of the Ariane 62 launch vehicle, carrying ten cubesats, two deployers, five experiments, and two reentry capsules.

3CAT-4 was lifted into orbit during the mission ‘Ariane 62 | Maiden Flight’, on board a Ariane 62 space rocket.

The launch took place on July 9, 2024, 7 p.m. from Ariane Launch Area 4.

For more information about the launch, click the button.

Launch to space Ariane 62 | Maiden Flight
Ariane 62 | Maiden Flight

Agency: European Space Agency

Status: Launch Successful

Launch date: July 9, 2024, 7 p.m. UTC

Rocket: Ariane 62

Launch pad: Ariane Launch Area 4

Location: Guiana Space Centre, French Guiana

...

Latest news about this satellite

News about space launch
ESA 2024 Highlights: flight of the Ariane 6

In 2024, ESA continued to drive Europe’s innovation and excellence in space, equipping the continent with advanced tools and knowledge to address global and local challenges. The year saw pioneering missions, cutting-edge satellites and the pivotal restor...

News about space launch
Europe lifts off from its launcher crisis

For the European space industry, the deafening rumble of the ascending rocket was a sigh of relief. On the afternoon of July 9, an Ariane 6 lifted off on a […]

News about space launch
Ariane 6 joint update report, 16 September 2024

The Ariane 6 Launcher Task Force consists of top management of ESA, as the overall Ariane 6 procuring entity and launch system architect, of the French space agency CNES as the launch base prime contractor, of ArianeGroup as the launcher system prime cont...


Newsletter sign-up

Weekly statistics, charts and insights to help you stay on top of the space industry.